Probability
0 0 0 0 0 0 0 0 0 0 0 0 0 0 1 2 3 4 5 6 6 6 6 6 6 5 4 4 3 3 3 3 4 4 3 3 4 6 6 6 6 7 7 7
0 0 0 0 0 0 0 0 0 0 0 0 0 0 1 2 3 3 4 5 6 6 6 6 6 6 5 4 4 3 2 2 3 4 4 3 4 6 6 6 6 7 7 7
0 0 0 0 0 0 0 0 0 0 0 0 0 0 1 2 3 3 3 4 5 6 6 6 6 6 6 6 5 4 2 2 3 4 5 4 5 6 6 6 6 6 6 6
0 0 0 0 0 0 0 0 0 0 0 0 0 0 0 1 2 3 3 3 4 4 4 5 6 5 5 5 5 4 2 3 5 6 6 6 6 6 6 6 5 4 4 4
0 0 0 0 0 0 0 0 0 0 0 0 0 0 0 0 1 2 2 2 3 3 3 4 4 3 2 2 2 1 1 2 4 6 7 6 6 6 6 5 3 2 2 1
0 0 0 0 0 0 0 0 0 0 0 0 0 0 0 0 0 0 0 1 2 2 2 2 2 1 0 0 0 0 0 1 2 4 5 6 6 5 4 3 2 1 1 0
0 0 0 0 0 0 0 0 0 0 0 0 0 0 0 0 0 0 0 0 1 1 1 1 1 0 0 0 0 0 0 0 1 1 2 4 5 4 3 2 1 1 1 0
0 0 0 0 0 0 0 0 0 0 0 0 0 0 0 0 0 0 0 0 0 0 0 0 0 0 0 0 0 0 0 0 1 1 1 3 4 3 3 1 1 1 2 1
0 0 0 0 0 0 0 0 0 0 0 0 0 0 0 0 0 0 0 0 0 0 0 0 0 0 0 0 0 1 1 0 1 2 2 3 3 3 2 1 0 1 1 1
0 0 0 0 0 0 0 0 0 0 0 0 0 0 0 0 0 0 0 0 0 0 0 0 0 0 0 0 1 2 2 2 2 3 4 3 3 2 1 0 0 0 0 0
0 0 0 0 0 0 0 0 0 0 0 0 0 0 0 0 0 0 0 0 0 0 0 0 0 0 0 0 1 2 3 2 3 3 4 3 3 1 0 0 0 0 0 0
0 0 0 0 0 0 0 0 0 0 0 0 0 0 0 0 0 0 0 0 0 0 0 0 0 0 0 0 1 2 3 2 2 3 3 3 2 1 0 0 0 0 0 0
0 0 0 0 0 0 0 0 0 0 0 0 0 0 0 0 0 0 0 0 0 0 0 0 0 0 0 0 1 2 2 1 1 1 3 3 1 0 0 0 0 0 0 0
0 0 0 0 0 0 0 0 0 0 0 0 0 0 0 0 0 0 0 0 0 0 0 0 0 0 0 1 2 2 1 0 1 1 2 2 1 0 0 0 0 0 0 0
0 0 0 0 0 0 0 0 0 0 0 0 0 0 0 0 0 0 0 0 0 0 0 0 0 0 0 1 2 1 0 1 2 3 2 1 0 0 0 0 0 0 0 0
0 0 0 0 0 0 0 0 0 0 0 0 0 0 0 0 0 0 0 0 0 0 0 0 0 0 0 1 1 1 0 1 2 3 2 1 0 0 0 0 0 0 0 0
0 0 0 0 0 0 0 0 0 0 0 0 0 0 0 0 0 0 0 0 0 0 0 0 0 0 0 0 0 0 1 2 2 1 1 0 0 0 0 0 0 0 0 0
0 0 0 0 0 0 0 0 0 0 0 0 0 0 0 0 0 0 0 0 0 0 0 0 0 0 0 0 0 1 2 2 1 0 0 0 0 0 0 0 0 0 0 0
0 0 0 0 0 0 0 0 0 0 0 0 0 0 0 0 0 0 0 0 0 0 0 0 0 0 0 0 0 1 2 1 0 0 0 0 0 0 0 0 0 0 0 0
0 0 0 0 0 0 0 0 0 0 0 0 0 0 0 0 0 0 0 0 0 0 0 0 0 0 0 0 0 1 1 0 0 0 0 0 0 0 0 0 0 0 0 0
0 0 0 0 0 0 0 0 0 0 0 0 0 0 0 0 0 0 0 0 0 0 0 0 0 0 0 0 0 0 0 0 0 0 0 0 0 0 0 0 0 0 0 0
0 0 0 0 0 0 0 0 0 0 0 0 0 0 0 0 0 0 0 0 0 0 0 0 0 0 0 0 0 0 0 0 0 0 0 0 0 0 0 0 0 0 0 0
0 0 0 0 0 0 0 0 0 0 0 0 0 0 0 0 0 0 0 0 0 0 0 0 0 0 0 0 0 0 0 0 0 0 0 0 0 0 0 0 0 0 0 0
0 0 0 0 0 0 0 0 0 0 0 0 0 0 0 0 0 0 0 0 0 0 0 0 0 0 0 0 0 0 0 0 0 0 0 0 0 0 0 0 0 0 0 0
0 0 0 0 0 0 0 0 0 0 0 0 0 0 0 0 0 0 0 0 0 0 0 0 0 0 0 0 0 0 0 0 0 0 0 0 0 0 0 0 0 0 0 0
0 0 0 0 0 0 0 0 0 0 0 0 0 0 0 0 0 0 0 0 0 0 0 0 0 0 0 0 0 0 0 0 0 0 0 0 0 0 0 0 0 0 0 0
Wind_Speed
2 2 3 4 5 4 4 4 5 3 2 3 6 8 8 5 5 5 4 3 2 2 2 2 1 0 1 2 1 1 2 2 1 1 1 1 1 1 1 1 2 2 1 1
2 4 4 5 4 5 4 5 6 4 2 4 6 9 9 7 6 4 3 3 2 1 1 0 1 1 2 2 1 1 2 2 2 1 1 1 1 2 1 1 1 2 1 1
4 2 3 4 4 4 4 4 5 4 6 5 6 8 6 4 3 2 2 2 2 2 1 1 1 1 2 2 2 2 2 3 2 2 1 1 1 1 1 1 1 2 2 1
2 3 4 4 3 4 4 2 3 4 4 3 3 5 4 4 4 4 3 2 1 1 1 1 2 2 2 2 1 2 3 3 3 2 1 2 1 2 2 1 1 1 1 1
1 1 3 4 3 3 2 2 3 5 4 5 5 5 6 3 4 4 2 1 1 1 1 2 2 2 2 1 1 2 3 3 3 2 2 2 2 2 1 1 1 1 1 1
2 2 2 2 2 3 2 2 4 4 2 5 7 6 5 3 4 2 1 1 1 1 1 1 1 1 1 1 1 2 2 3 2 2 2 2 3 2 2 2 1 1 1 1
2 3 2 1 2 2 2 0 1 1 3 6 3 4 5 1 1 1 0 1 1 1 1 1 2 2 2 1 2 2 3 3 3 2 2 2 3 3 3 2 2 1 1 2
2 2 2 1 1 1 3 2 2 2 3 2 2 5 3 2 2 2 1 1 2 3 2 2 2 3 2 2 2 3 3 4 3 3 3 3 3 2 2 2 2 2 2 2
1 1 1 1 1 2 1 2 1 1 3 4 5 3 1 2 2 2 2 3 3 4 4 3 4 3 3 3 3 4 4 3 3 3 3 3 3 2 2 2 2 1 1 2
2 2 1 1 1 2 2 1 1 2 2 4 5 4 3 2 1 1 2 3 3 4 4 4 4 4 4 3 3 3 3 3 2 2 2 2 2 2 2 2 1 1 2 2
1 1 2 1 3 3 3 2 2 2 2 2 4 3 1 2 1 2 3 4 4 5 5 5 5 4 4 4 3 3 3 2 2 2 2 2 2 1 1 1 1 1 1 1
1 1 2 2 1 1 2 2 3 3 3 3 3 5 2 3 3 3 4 4 4 5 5 5 5 5 4 4 3 3 2 1 2 1 2 2 1 1 1 1 0 1 1 1
0 1 1 1 1 0 2 3 3 2 2 3 4 7 1 3 4 4 4 5 5 5 5 5 5 5 4 3 3 2 1 1 1 1 1 1 1 1 1 0 1 1 1 1
0 2 3 4 3 2 4 4 4 4 4 5 7 8 6 4 5 5 5 5 5 6 5 6 6 5 4 4 3 2 2 1 0 1 1 1 1 1 1 1 1 0 0 1
0 2 3 6 6 4 5 5 5 8 7 6 7 7 7 5 5 5 5 5 6 6 6 6 6 6 5 4 3 2 1 1 0 0 1 1 0 0 1 0 0 0 0 1
1 2 2 5 4 3 5 5 6 7 7 8 9 11 6 5 4 5 5 6 7 7 7 7 6 6 6 4 4 3 2 1 1 1 0 0 0 1 0 1 1 1 0 0
1 1 1 3 2 3 6 6 7 5 5 5 7 7 6 6 6 6 6 5 6 6 6 6 5 5 5 4 4 3 2 1 1 1 1 1 1 1 1 1 1 1 1 1
2 1 1 2 3 4 4 1 2 4 4 4 5 6 6 7 7 4 4 4 5 6 5 5 5 5 5 4 4 3 3 2 2 1 1 2 2 1 1 1 1 1 1 1
2 2 2 1 3 5 2 1 1 1 4 3 5 7 7 7 5 3 4 5 5 5 4 4 4 4 4 4 3 3 3 3 2 2 2 2 2 2 2 2 1 1 1 1
1 1 1 2 3 4 2 1 1 1 3 3 2 5 5 5 4 4 6 6 6 5 5 4 4 3 3 3 3 3 3 3 3 2 2 2 2 1 1 1 1 1 1 1
1 2 3 4 4 5 1 1 1 1 4 4 2 3 3 2 4 5 5 5 5 5 5 5 4 3 3 3 3 3 3 3 2 2 2 3 2 1 1 1 1 2 1 1
4 3 4 3 4 6 1 3 2 3 2 3 3 3 3 4 5 5 5 5 5 5 5 5 4 3 4 3 3 3 3 2 3 3 3 3 2 2 2 2 2 2 1 1
4 4 3 5 5 2 3 3 2 0 2 3 3 4 4 4 4 5 4 4 4 5 4 4 3 4 4 4 3 3 3 3 3 3 3 3 3 2 2 2 1 1 1 1
3 1 2 3 5 3 3 2 2 2 3 3 3 3 3 3 4 4 4 4 4 4 4 4 3 4 4 4 3 2 2 3 3 3 3 3 3 3 2 2 1 1 1 1
2 3 3 5 5 4 3 3 3 3 3 3 3 3 3 3 4 4 4 3 3 3 4 3 3 3 3 3 3 3 2 2 2 2 2 2 2 2 2 2 2 1 1 0
4 5 5 5 3 3 3 1 1 2 3 3 3 3 3 2 3 3 3 3 3 3 3 3 3 3 3 3 3 3 3 2 1 2 2 2 2 2 1 1 2 4 2 3
Wind_Direction
193 212 227 237 232 253 281 287 281 273 267 276 260 265 265 250 237 238 231 217 216 220 191 163 170 245 284 284 285 307 301 307 327 323 309 294 289 287 289 279 294 275 238 221
205 235 264 272 267 256 261 271 275 277 269 279 273 272 268 249 234 220 220 219 216 240 285 251 186 211 251 270 293 307 297 289 287 279 282 264 264 262 254 269 280 287 278 246
217 240 269 261 259 256 246 250 271 284 301 267 271 277 241 218 218 212 208 208 202 202 244 264 272 249 267 266 274 281 274 274 273 271 279 296 303 289 296 289 286 291 287 269
234 245 261 252 256 266 258 277 276 285 297 276 252 284 249 213 219 223 218 204 230 231 238 247 253 254 257 262 269 275 271 272 262 245 229 230 245 256 273 271 277 293 284 285
248 259 263 253 263 276 263 298 273 262 265 280 244 242 263 201 228 232 220 227 245 249 257 254 241 238 257 255 275 285 285 275 263 243 224 226 240 256 271 263 268 292 302 287
261 269 284 280 274 271 278 272 250 239 247 256 229 214 260 209 225 230 246 254 272 272 265 288 264 241 266 244 249 262 273 273 266 244 223 218 227 238 243 263 273 288 303 302
233 215 205 237 254 219 232 203 344 259 230 242 196 213 249 195 93 127 205 314 338 316 332 336 322 288 264 265 269 260 263 276 265 252 236 228 229 228 225 230 226 246 266 277
227 236 188 213 241 226 216 231 199 244 266 288 232 235 236 112 81 51 59 18 358 342 339 325 311 287 271 269 268 266 258 265 257 248 237 228 229 223 224 229 217 228 231 241
286 260 145 239 279 269 232 224 263 253 277 273 243 226 220 119 78 32 15 2 341 336 338 325 312 299 284 275 265 259 260 259 252 258 248 227 228 224 224 241 228 229 242 246
322 282 240 191 250 245 260 286 209 196 260 277 266 227 217 186 237 348 348 333 324 325 325 319 308 301 289 282 274 267 257 241 235 248 251 256 236 227 218 231 242 256 248 234
318 218 252 201 207 206 197 211 226 246 253 254 286 279 62 136 123 2 334 336 337 335 327 319 308 300 292 293 290 277 263 247 231 228 237 236 230 237 223 232 251 241 235 230
336 264 252 231 209 288 231 218 194 201 250 230 260 274 32 61 63 20 343 333 334 328 322 319 317 314 303 293 292 276 262 251 231 233 238 228 200 211 225 234 238 210 235 267
359 191 280 281 266 253 255 237 226 231 264 244 244 265 357 28 18 3 345 338 335 329 329 331 331 326 320 311 306 302 286 277 261 244 230 218 202 206 200 189 184 200 203 285
319 225 225 245 274 243 242 237 219 205 221 247 240 265 293 323 332 332 333 332 330 329 331 333 329 328 328 327 318 311 291 277 254 203 198 211 219 188 159 159 198 213 263 284
16 250 258 275 278 272 255 237 215 219 229 238 265 275 285 310 315 316 325 328 328 327 329 332 328 328 331 339 333 326 315 329 37 134 191 212 220 133 135 151 125 17 276 299
351 272 296 281 262 264 266 255 231 232 244 257 280 285 295 318 323 327 328 327 324 323 325 329 331 330 332 337 341 343 344 351 89 142 236 200 113 93 127 103 80 44 25 50
199 209 280 279 312 313 271 239 213 216 221 221 245 263 318 325 326 322 322 323 319 320 324 325 325 326 332 335 339 340 346 15 75 80 48 43 78 73 45 54 56 22 4 25
177 202 233 284 317 255 241 19 174 206 247 246 270 297 320 317 313 315 325 331 325 326 326 328 333 339 341 344 348 359 15 33 50 51 41 37 62 58 32 53 52 26 20 27
204 192 230 251 269 271 279 351 62 206 282 262 267 294 313 327 327 318 343 343 331 329 326 326 327 330 339 345 357 17 24 36 37 33 33 33 62 56 43 42 36 40 42 30
52 160 213 237 255 261 283 350 20 103 286 322 306 301 320 350 337 308 343 342 338 341 340 339 340 346 348 348 19 31 22 35 32 23 24 26 49 56 50 43 36 35 33 41
160 193 212 231 247 266 316 353 84 133 275 329 327 313 327 299 263 298 328 334 338 345 346 350 353 354 353 5 34 33 28 24 21 26 31 28 32 43 49 58 51 35 35 48
181 184 199 199 225 256 110 115 176 235 308 329 329 327 313 300 306 320 329 335 342 345 346 350 354 354 359 16 38 34 21 14 29 35 35 28 20 22 34 55 48 34 35 72
204 202 198 201 218 241 173 199 229 303 305 312 317 319 316 311 313 321 328 334 338 340 345 352 356 2 7 16 37 40 11 22 32 35 30 25 22 30 35 41 52 37 27 59
221 187 229 266 267 259 234 266 297 297 288 305 313 311 315 310 315 322 327 331 335 344 349 354 5 10 3 11 21 26 13 24 36 31 20 19 24 25 22 17 15 37 29 32
215 168 219 254 275 295 271 253 271 289 308 318 324 320 314 314 316 322 327 332 336 345 351 360 8 6 357 6 12 10 17 36 38 24 16 13 20 26 26 23 18 7 16 3
195 191 199 232 234 225 267 299 292 291 292 296 311 323 329 326 318 325 325 330 336 341 350 360 1 357 353 3 4 2 10 20 29 18 13 13 20 22 24 30 29 25 28 26